Middletown, OH

3:26 AM EDT on October 19, 2017 (GMT -0400)
Hook Field Municipal

Weather History for KMWO - January, 2013

Change the Weather History Date:

Sunday, January 13, 2013

  Actual Average (KFFO) Record (KFFO)
Temperature  
Mean Temperature 51 °F -  
Max Temperature 67 °F 33 °F 66 °F (2005)
Min Temperature 35 °F 17 °F -5 °F (1997)
Degree Days  
Heating Degree Days 14    
Growing Degree Days 1 (Base 50)    
Moisture  
Dew Point 54 °F    
Average Humidity 98    
Maximum Humidity 100    
Minimum Humidity 86    
Precipitation  
Precipitation 0.00 in - - ()
Sea Level Pressure  
Sea Level Pressure 29.90 in    
Wind  
Wind Speed 11 mph (SW)    
Max Wind Speed 20 mph    
Max Gust Speed 34 mph    
Visibility 9 miles    
Events Rain    
Averages and records for this station are not official NWS values.
T = Trace of Precipitation, MM = Missing Value Source: NWS Daily Summary

Daily Weather History Graph

Daily Weather History Graph

Search for Another Location

Airport or City:

Trip Planner

Search our weather history database for the weather conditions in past years. The results will help you decide how hot, cold, wet, or windy it might be!

Date:

Astronomy

Jan. 13, 2013 Rise Set
Actual Time 7:56 AM EST 5:36 PM EST
Civil Twilight 7:27 AM EST 6:05 PM EST
Nautical Twilight 6:54 AM EST 6:39 PM EST
Astronomical Twilight 6:21 AM EST 7:11 PM EST
Moon 8:55 AM EST (1/13) 8:12 PM EST (1/13)
Length of Visible Light 10h 38m
Length of Day
9h 39m
Waxing Crescent, 5% of the Moon is Illuminated
Jan 13
Waxing Crescent
Jan 18
First Quarter
Jan 26
Full
Feb 3
Last Quarter
Feb 10
New

Hourly Weather History & Observations

Time (EST) Temp. Windchill Dew Point Humidity Pressure Visibility Wind Dir Wind Speed Gust Speed Precip Events Conditions
12:15 AM 65.3 °F - 64.0 °F 96% 29.80 in 10.0 mi South 10.4 mph 19.6 mph N/A   Mostly Cloudy
12:35 AM 65.3 °F - 63.9 °F 95% 29.78 in 10.0 mi South 15.0 mph 18.4 mph N/A   Mostly Cloudy
12:55 AM 65.3 °F - 63.7 °F 94% 29.78 in 10.0 mi South 15.0 mph 20.7 mph N/A   Overcast
1:15 AM 65.8 °F - 63.9 °F 93% 29.77 in 10.0 mi SSW 13.8 mph 26.5 mph N/A   Overcast
1:35 AM 67.6 °F - 65.3 °F 92% 29.76 in 10.0 mi SSW 15.0 mph - N/A   Overcast
1:55 AM 67.6 °F - 64.4 °F 89% 29.75 in 10.0 mi SSW 16.1 mph 19.6 mph N/A   Overcast
2:15 AM 67.6 °F - 63.9 °F 88% 29.75 in 10.0 mi South 12.7 mph 19.6 mph N/A   Overcast
2:35 AM 67.6 °F - 63.5 °F 87% 29.75 in 10.0 mi SSW 15.0 mph 23.0 mph N/A   Overcast
2:55 AM 67.6 °F - 63.3 °F 86% 29.76 in 10.0 mi SSW 17.3 mph 24.2 mph N/A Rain Light Rain
3:15 AM 65.3 °F - 62.8 °F 92% 29.74 in 10.0 mi South 16.1 mph 27.6 mph N/A Rain Light Rain
3:35 AM 62.6 °F - 60.8 °F 94% 29.75 in 10.0 mi SSW 15.0 mph 23.0 mph N/A Rain Light Rain
3:55 AM 65.3 °F - 62.6 °F 91% 29.75 in 10.0 mi SSW 19.6 mph 29.9 mph N/A Rain Rain
4:15 AM 62.2 °F - 60.1 °F 93% 29.79 in 7.0 mi West 17.3 mph 34.5 mph N/A Rain Light Rain
4:35 AM 60.1 °F - 58.8 °F 96% 29.80 in 10.0 mi WSW 6.9 mph 16.1 mph N/A Rain Light Rain
4:55 AM 59.0 °F - 58.8 °F 99% 29.83 in 10.0 mi SSW 11.5 mph - N/A Rain Rain
5:15 AM 59.0 °F - 59.0 °F 100% 29.83 in 10.0 mi SSW 8.1 mph - N/A Rain Light Rain
5:35 AM 58.1 °F - 58.1 °F 100% 29.84 in 10.0 mi SW 5.8 mph - N/A   Light Drizzle
5:55 AM 57.7 °F - 57.7 °F 100% 29.85 in 10.0 mi SSW 6.9 mph - N/A   Light Drizzle
6:15 AM 57.7 °F - 57.7 °F 100% 29.87 in 10.0 mi SSW 6.9 mph - N/A   Drizzle
6:35 AM 57.7 °F - 57.7 °F 100% 29.88 in 10.0 mi SSW 6.9 mph - N/A Rain Light Rain
6:55 AM 57.7 °F - 57.7 °F 100% 29.90 in 10.0 mi SSW 8.1 mph - N/A   Drizzle
7:15 AM 57.7 °F - 57.7 °F 100% 29.90 in 10.0 mi South 8.1 mph - N/A Rain Light Rain
7:35 AM 57.7 °F - 57.7 °F 100% 29.90 in 10.0 mi SSW 5.8 mph - N/A Rain Light Rain
7:55 AM 57.7 °F - 57.7 °F 100% 29.92 in 10.0 mi SSW 9.2 mph - N/A Rain Light Rain
8:15 AM 57.7 °F - 57.7 °F 100% 29.91 in 10.0 mi South 8.1 mph - N/A Rain Light Rain
8:35 AM 57.7 °F - 57.7 °F 100% 29.92 in 10.0 mi South 10.4 mph - N/A Rain Rain
8:55 AM 57.7 °F - 57.7 °F 100% 29.92 in 10.0 mi South 13.8 mph - N/A Rain Light Rain
9:15 AM 57.7 °F - 57.7 °F 100% 29.92 in 10.0 mi South 10.4 mph 19.6 mph N/A Rain Rain
9:35 AM 57.7 °F - 57.7 °F 100% 29.90 in 10.0 mi South 12.7 mph 19.6 mph N/A   Drizzle
9:55 AM 58.1 °F - 58.1 °F 100% 29.88 in 10.0 mi SSE 10.4 mph 17.3 mph N/A Rain Light Rain
10:15 AM 57.7 °F - 57.7 °F 100% 29.90 in 10.0 mi South 13.8 mph 18.4 mph N/A   Overcast
10:35 AM 58.6 °F - 58.6 °F 100% 29.88 in 10.0 mi South 9.2 mph - N/A   Overcast
10:55 AM 59.0 °F - 59.0 °F 100% 29.91 in 10.0 mi SSW 10.4 mph - N/A   Light Drizzle
11:15 AM 59.0 °F - 59.0 °F 100% 29.91 in 10.0 mi SSW 9.2 mph - N/A Rain Light Rain
11:35 AM 58.8 °F - 58.8 °F 100% 29.91 in 10.0 mi SSW 8.1 mph - N/A Rain Light Rain
11:55 AM 58.3 °F - 58.3 °F 100% 29.86 in 10.0 mi South 9.2 mph - N/A Rain Light Rain
12:15 PM 58.3 °F - 58.3 °F 100% 29.87 in 10.0 mi South 6.9 mph - N/A Rain Light Rain
12:35 PM 59.0 °F - 58.6 °F 99% 29.88 in 10.0 mi South 9.2 mph - N/A   Overcast
12:55 PM 59.0 °F - 58.5 °F 98% 29.88 in 10.0 mi SSW 10.4 mph - N/A   Overcast
1:15 PM 59.0 °F - 58.3 °F 97% 29.88 in 10.0 mi SW 8.1 mph - N/A   Overcast
1:35 PM 59.0 °F - 58.6 °F 99% 29.87 in 10.0 mi SSW 9.2 mph - N/A   Overcast
1:55 PM 59.0 °F - 58.3 °F 97% 29.84 in 10.0 mi South 5.8 mph - N/A   Overcast
2:15 PM 59.0 °F - 57.9 °F 96% 29.84 in 10.0 mi SSW 10.4 mph 18.4 mph N/A   Mostly Cloudy
2:35 PM 59.0 °F - 57.9 °F 96% 29.85 in 10.0 mi SSW 6.9 mph - N/A   Mostly Cloudy
2:55 PM 57.7 °F - 57.6 °F 99% 29.86 in 10.0 mi SSW 10.4 mph - N/A Rain Light Rain
3:15 PM 57.7 °F - 57.7 °F 100% 29.87 in 5.0 mi SSW 5.8 mph - N/A Rain Heavy Rain
3:35 PM 57.7 °F - 57.7 °F 100% 29.87 in 10.0 mi SSW 9.2 mph - N/A Rain Light Rain
3:55 PM 57.7 °F - 57.7 °F 100% 29.88 in 10.0 mi SSW 9.2 mph - N/A Rain Rain
4:15 PM 57.7 °F - 57.7 °F 100% 29.88 in 10.0 mi SW 8.1 mph - N/A Rain Light Rain
4:35 PM 57.7 °F - 57.7 °F 100% 29.89 in 5.0 mi SW 8.1 mph - N/A Rain Rain
4:55 PM 52.2 °F - 52.2 °F 100% 29.91 in 7.0 mi WNW 15.0 mph - N/A Rain Light Rain
5:15 PM 47.7 °F - 47.7 °F 100% 29.90 in 10.0 mi North 5.8 mph - N/A   Unknown
5:35 PM 47.7 °F - 47.7 °F 100% 29.91 in 10.0 mi North 6.9 mph - N/A   Overcast
5:55 PM 45.1 °F 41.4 °F 45.1 °F 100% 29.91 in 4.0 mi North 6.9 mph - N/A   Unknown
6:15 PM 42.8 °F 38.6 °F 42.8 °F 100% 29.93 in 2.5 mi NNW 6.9 mph - N/A   Unknown
6:35 PM 41.5 °F 35.9 °F 41.5 °F 100% 29.96 in 2.5 mi NNW 9.2 mph 17.3 mph N/A   Unknown
6:55 PM 40.6 °F 36.7 °F 40.6 °F 100% 29.97 in 2.0 mi North 5.8 mph - N/A   Unknown
7:15 PM 40.1 °F 34.1 °F 40.1 °F 100% 29.97 in 2.5 mi North 9.2 mph - N/A   Unknown
7:35 PM 40.1 °F 35.3 °F 40.1 °F 100% 29.97 in 5.0 mi NNW 6.9 mph - N/A   Unknown
7:55 PM 40.1 °F 35.3 °F 40.1 °F 100% 30.00 in 2.0 mi WNW 6.9 mph - N/A   Unknown
8:15 PM 38.8 °F 31.2 °F 38.8 °F 100% 30.02 in 2.0 mi NW 12.7 mph 18.4 mph N/A   Unknown
8:35 PM 37.6 °F 30.5 °F 37.6 °F 100% 30.02 in 5.0 mi NW 10.4 mph 17.3 mph N/A   Overcast
8:55 PM 37.6 °F 29.6 °F 37.6 °F 100% 30.04 in 4.0 mi WNW 12.7 mph 16.1 mph N/A   Overcast
9:15 PM 37.6 °F 31.6 °F 37.6 °F 100% 30.05 in 4.0 mi NW 8.1 mph - N/A   Overcast
9:35 PM 37.6 °F 29.6 °F 37.6 °F 100% 30.05 in 10.0 mi NW 12.7 mph 17.3 mph N/A   Overcast
9:55 PM 37.6 °F 31.6 °F 37.4 °F 99% 30.07 in - NW 8.1 mph - N/A   Overcast
10:15 PM 37.6 °F - 37.2 °F 99% 30.09 in - Calm Calm - N/A   Unknown
10:35 PM 37.6 °F 34.0 °F 36.9 °F 97% 30.11 in - NW 4.6 mph - N/A   Overcast
10:55 PM 37.6 °F 33.1 °F 37.0 °F 98% 30.11 in 10.0 mi NW 5.8 mph - N/A   Overcast
11:15 PM 37.4 °F 31.4 °F 36.7 °F 97% 30.14 in 10.0 mi WNW 8.1 mph - N/A   Overcast
11:35 PM 35.2 °F 27.6 °F 34.2 °F 96% 30.15 in 10.0 mi WNW 10.4 mph - N/A   Overcast
11:55 PM 35.1 °F 27.9 °F 34.3 °F 97% 30.16 in 10.0 mi WNW 9.2 mph - N/A   Overcast